Home   Weather   Randers   Past weeks

Flag for Denmark Past Weather in Randers, Denmark — Yesterday and Last 2 Weeks

37 °F


Feels Like: 35 °F
Forecast: 31 / 51 °F
Wind: 3 mph from West

Location: Tirstrup

Current Time: Oct 25, 2016 at 7:08:02 AM

Latest Report: Oct 25, 2016 at 6:20 AM

Visibility: 0 mi

Pressure: 30.15 "Hg

Humidity: 87%

Dew Point: 34 °F

Location of RandersLocation

Past Weather in Randers — Graph


Randers Temperature Yesterday

Maximum temperature yesterday: 48 °F (at 11:20 AM)
Minimum temperature yesterday: 39 °F (at 2:50 AM)
Average temperature yesterday: 45 °F

High & Low Weather Summary for the Past Weeks

High55 °F (Oct 20, 1:20 PM)94% (Oct 18, 3:50 AM)30.42 "Hg (Oct 18, 3:50 AM)
Low37 °F (Oct 25, 3:20 AM)54% (Oct 11, 6:50 AM)29.95 "Hg (Oct 19, 2:20 AM)
Average48 °F77%30.18 "Hg
* Reported Oct 10 5:20 AM — Oct 25 5:50 AM, Randers, Weather by CustomWeather, © 2016

Note: Actual official high and low records may vary slightly from our data, if they occured in-between our weather recording intervals... More about our weather records


Randers Weather History for the Previous 24 Hours

Scroll right to see more
Time TempWeatherWind HumidityBarometerVisibility
5:50 AM
Tue, Oct 25
37 °FFog.2 mph93%30.15 "Hg0 mi
5:20 AM37 °FFog.5 mph93%30.15 "Hg1 mi
4:50 AM39 °FFog.3 mph87%30.12 "Hg0 mi
4:20 AM39 °FFog.3 mph87%30.12 "Hg1 mi
3:50 AM37 °FFog.2 mph87%30.15 "Hg0 mi
3:20 AM37 °FFog.2 mph87%30.15 "Hg0 mi
2:50 AM39 °FFog.2 mph87%30.15 "Hg0 mi
2:20 AM41 °FFog.2 mph87%30.12 "Hg1 mi
1:50 AM43 °FFog.2 mph81%30.12 "Hg1 mi
1:20 AM43 °FFog.2 mph87%30.15 "Hg1 mi
12:50 AM43 °FFog.2 mph87%30.15 "Hg2 mi
12:20 AM45 °FFog.2 mph81%30.15 "Hg1 mi
11:50 PM
Mon, Oct 24
45 °FPassing clouds.No wind81%30.15 "Hg5 mi
11:20 PM45 °FPassing clouds.3 mph81%30.15 "Hg5 mi
10:50 PM45 °FPassing clouds.5 mph81%30.15 "HgN/A
10:20 PM45 °FPassing clouds.5 mph81%30.15 "HgN/A
9:50 PM46 °FPartly cloudy.3 mph76%30.15 "Hg6 mi
9:20 PM46 °FOvercast.2 mph76%30.15 "Hg6 mi
8:50 PM46 °FPassing clouds.2 mph76%30.15 "Hg6 mi
8:20 PM46 °FPassing clouds.3 mph76%30.15 "Hg6 mi
7:50 PM46 °FOvercast.3 mph76%30.15 "Hg6 mi
7:20 PM46 °FPassing clouds.5 mph76%30.15 "HgN/A
6:50 PM46 °FPassing clouds.3 mph76%30.15 "Hg6 mi
6:20 PM46 °FPassing clouds.5 mph76%30.15 "HgN/A
5:50 PM46 °FPartly sunny.7 mph76%30.15 "HgN/A
5:20 PM46 °FPartly sunny.5 mph76%30.15 "HgN/A
4:50 PM46 °FOvercast.7 mph76%30.15 "HgN/A
4:20 PM46 °FOvercast.9 mph71%30.15 "HgN/A
3:50 PM46 °FOvercast.8 mph76%30.15 "HgN/A
3:20 PM48 °FPartly sunny.9 mph71%30.15 "HgN/A
2:50 PM48 °FPartly sunny.9 mph71%30.15 "HgN/A
2:20 PM48 °FPartly sunny.8 mph71%30.15 "HgN/A
1:50 PM48 °FPartly sunny.9 mph71%30.15 "HgN/A
1:20 PM48 °FPartly sunny.9 mph76%30.15 "HgN/A
12:50 PM48 °FScattered clouds.10 mph71%30.15 "HgN/A
12:20 PM48 °FPartly sunny.10 mph76%30.15 "HgN/A
11:50 AM48 °FPartly sunny.9 mph76%30.15 "HgN/A
11:20 AM48 °FPassing clouds.9 mph76%30.15 "HgN/A
10:50 AM46 °FBroken clouds.9 mph87%30.15 "HgN/A
10:20 AM46 °FBroken clouds.7 mph87%30.15 "Hg5 mi
9:50 AM45 °FBroken clouds.5 mph87%30.15 "Hg4 mi
9:20 AM45 °FPartly sunny.5 mph87%30.15 "Hg6 mi
8:50 AM43 °FFog.2 mph87%30.15 "Hg2 mi
8:20 AM41 °FFog.1 mph87%30.12 "Hg1 mi
7:50 AM41 °FFog.No wind93%30.12 "Hg1 mi
7:20 AM41 °FFog.1 mph93%30.12 "Hg2 mi
Weather by CustomWeather, © 2016

See weather overviewHow to use our weather pages